This demonstration page uses our WeatherBlox Daily Observations layout. Learn more.

Left ArrowRight Arrow

39.08367, -84.50855

Hourly Observations for November 17, 2022

Temp ( °F °C ) Dew Point ( °F °C ) Humidity (%) Winds ( mph kmh ) Pressure ( in mb ) Visibility ( mi km ) Precip ( " mm )
12:53 am 00:53 Cloudy 30 -1.1 21 -6.1 69 69 WSW 12 19 30.22 1023 9 14 0.00 0.00
1:40 am 01:40 Cloudy with Light Snow 30 -1.1 23 -5 75 75 WSW 9 15 30.24 1024 3 5 0.01 0.13
1:53 am 01:53 Cloudy with Light Snow 30 -1.1 23 -5 75 75 WSW 12 19 30.22 1023 4 6 0.01 0.13
2:53 am 02:53 Cloudy with Haze 31 -0.6 24 -4.4 75 75 WSW 9 15 30.23 1024 6 10 0.01 0.13
3:53 am 03:53 Cloudy 32 0 25 -3.9 75 75 W 14 22 30.24 1024 8 13 0.00 0.00
4:53 am 04:53 Cloudy 32 0 25 -3.9 75 75 W 13 20 30.25 1024 8 13 0.00 0.00
5:53 am 05:53 Cloudy 32 0 24 -4.4 72 72 W 13 20 30.26 1025 9 14 0.00 0.00
6:53 am 06:53 Cloudy 32 0 24 -4.4 72 72 W 10 17 30.27 1025 9 14 0.00 0.00
7:53 am 07:53 Cloudy 32 0 24 -4.4 72 72 W 10 17 30.29 1026 7 11 0.00 0.00
8:53 am 08:53 Cloudy 32 0 24 -4.4 72 72 W 10 17 30.29 1026 7 11 0.00 0.00
9:53 am 09:53 Cloudy 32 0 23 -5 69 69 WSW 13 20 30.30 1026 10 16 0.00 0.00
10:53 am 10:53 Cloudy 33 0.6 21 -6.1 61 61 WSW 12 19 30.32 1027 10 16 0.00 0.00
11:53 am 11:53 Cloudy 33 0.6 22 -5.6 63 63 WSW 12 19 30.30 1026 10 16 0.00 0.00
12:53 pm 12:53 Cloudy 32 0 22 -5.6 66 66 WSW 14 22 30.28 1025 10 16 0.00 0.00
1:19 pm 13:19 Cloudy 32 0 22 -5.6 66 66 WSW 15 24 30.29 1026 7 11 0.00 0.00
1:53 pm 13:53 Cloudy 32 0 21 -6.1 63 63 WSW 14 22 30.27 1025 7 11 0.00 0.00
2:53 pm 14:53 Cloudy 32 0 21 -6.1 63 63 WSW 15 24 30.27 1025 7 11 0.00 0.00
3:53 pm 15:53 Cloudy 32 0 21 -6.1 63 63 WSW 13 20 30.27 1025 7 11 0.00 0.00
4:53 pm 16:53 Cloudy with Haze 31 -0.6 21 -6.1 66 66 WSW 10 17 30.27 1025 5 8 0.00 0.00
5:53 pm 17:53 Cloudy 31 -0.6 21 -6.1 66 66 WSW 8 13 30.27 1025 7 11 0.00 0.00
6:53 pm 18:53 Cloudy 31 -0.6 20 -6.7 63 63 W 13 20 30.29 1026 7 11 0.00 0.00
7:53 pm 19:53 Mostly Cloudy 29 -1.7 19 -7.2 66 66 SW 8 13 30.29 1026 7 11 0.00 0.00
8:53 pm 20:53 Cloudy with Haze 29 -1.7 21 -6.1 72 72 S 5 7 30.29 1026 6 10 0.00 0.00
9:53 pm 21:53 Cloudy 30 -1.1 21 -6.1 69 69 SSW 8 13 30.29 1026 7 11 0.00 0.00
10:53 pm 22:53 Hazy 25 -3.9 20 -6.7 81 81 SSW 7 11 30.28 1025 6 10 0.00 0.00
11:53 pm 23:53 Hazy 27 -2.8 20 -6.7 74 74 SSW 8 13 30.25 1025 6 10 0.00 0.00

Powered by AerisWeather